Flag for U.S.A. Weather past 2 weeks in Baker Island, U.S.A.

84 °F

Scattered showers. More clouds than sun.

Feels Like: 96 °F
Forecast: 82 / 88 °F
Wind: 1 mph from North

Location: Funafuti

Current Time: Oct 13, 2015 at 10:10:13 AM

Latest Report: Oct 13, 2015 at 9:00 AM

Visibility: N/A

Pressure: 29.80 "Hg

Humidity: 84%

Dew point: 79 °F

Location of Baker IslandLocation

Historic Weather in Baker Island — Graph


Baker Island temperature yesterday

Maximum temperature yesterday: 88 °F (at 11:00 AM)
Minimum temperature yesterday: 77 °F (at 2:00 PM)
Average temperature yesterday: 84 °F

Past Weeks' High & Low Weather Summary

High102 °F (Sep 28, 6:00 PM)100% (Oct 8, 1:00 AM)29.95 "Hg (Oct 8, 1:00 AM)
Low77 °F (Oct 8, 10:00 AM)13% (Sep 29, 3:00 PM)29.68 "Hg (Oct 9, 3:00 PM)
Average84 °F81%29.80 "Hg
* Reported Sep 28 9:00 AM — Oct 13 9:00 AM, Baker Island, Weather by CustomWeather, © 2015

Note: Actual official high and low records may vary slightly from our data, if they occured in-between our weather recording intervals... More about our weather records


Baker Island weather history for previous 24 hours

Time TempWeatherWind HumidityBarometerVisibility
9:00 AM
Tue, Oct 13
84 °FScattered showers. More clouds than sun.1 mph84%29.80 "HgN/A
8:00 AM82 °FScattered showers. More clouds than sun.7 mph89%29.77 "HgN/A
7:00 AM82 °FScattered showers. Overcast.8 mph84%29.77 "HgN/A
6:00 AM82 °FScattered showers. Mostly cloudy.10 mph79%29.74 "HgN/A
5:00 AM81 °FScattered showers. Partly cloudy.12 mph84%29.74 "HgN/A
4:00 AM82 °FScattered showers. Passing clouds.9 mph84%29.74 "HgN/A
3:00 AM82 °FScattered showers. Passing clouds.7 mph84%29.74 "HgN/A
2:00 AM82 °FScattered showers. Passing clouds.6 mph84%29.74 "HgN/A
1:00 AM82 °FScattered showers. Passing clouds.12 mph84%29.77 "HgN/A
12:00 AM84 °FScattered showers. Partly cloudy.9 mph79%29.80 "HgN/A
11:00 PM
Mon, Oct 12
84 °FScattered showers. Mostly cloudy.3 mph79%29.83 "HgN/A
10:00 PM84 °FSprinkles. Mostly cloudy.10 mph79%29.83 "HgN/A
9:00 PM84 °FScattered showers. Mostly cloudy.10 mph74%29.80 "HgN/A
8:00 PM84 °FSprinkles. Mostly cloudy.15 mph79%29.77 "HgN/A
7:00 PM84 °FScattered showers. Overcast.9 mph84%29.77 "HgN/A
6:00 PM82 °FScattered showers. Overcast.17 mph79%29.71 "HgN/A
5:00 PM84 °FScattered showers. More clouds than sun.18 mph74%29.71 "HgN/A
4:00 PM84 °FScattered showers. More clouds than sun.21 mph84%29.71 "HgN/A
3:00 PM82 °FScattered showers. More clouds than sun.21 mph84%29.71 "HgN/A
2:00 PM77 °FSprinkles. Mostly cloudy.16 mph100%29.74 "HgN/A
1:00 PM82 °FScattered showers. More clouds than sun.14 mph89%29.74 "HgN/A
12:00 PM88 °FScattered showers. Broken clouds.17 mph75%29.77 "HgN/A
11:00 AM88 °FBroken clouds.14 mph75%29.80 "HgN/A
10:00 AM86 °FPartly sunny.16 mph79%29.80 "HgN/A
Weather by CustomWeather, © 2015

See weather overviewHow to use our weather pages